{"data":{"norad_id":47358,"intl_designator":"2021-005K","name":"STARLINK-2055","alt_names":[],"object_type":"PAYLOAD","status":"ACTIVE","operator":null,"country":"US","launch_date":"2021-01-20","launch_site_code":"AFETR","launch_vehicle":null,"mission":null,"orbit_class":"UNKNOWN","rcs_meters":null,"size_class":null,"mass_kg":null,"dimensions":null,"purposes":["comms"],"wikipedia_slug":null,"has_3d_model":false,"image_url":null,"decayed_at":null,"tle_current":{"epoch":"2026-05-25T02:57:01.615104Z","epoch_age_seconds":71312,"freshness":"FRESH","line1":"1 47358U 21005K   26145.12293536  .00047540  00000+0  15975-2 0  9992","line2":"2 47358  53.1603  41.7425 0001415 111.6336 248.4815 15.30390891295087","mean_motion":15.30390891,"eccentricity":0.0001415,"inclination_deg":53.1603,"raan_deg":41.7425,"arg_perigee_deg":111.6336,"mean_anomaly_deg":248.4815,"bstar":0.0015975,"rev_number":29508,"period_min":94.093607618055,"perigee_km":473.67549387136,"apogee_km":475.61483122336,"semimajor_km":6852.7821625474,"source":"CELESTRAK","updated_at":"2026-05-25T13:38:16.525249Z"}}}